• In Uzbekistan
  • List of Countries
  • For 7 days
  • Water Temperature
  • Weather Map
  • Weather Widgets
  • user-avatar
    Login

    Hourly Weather Midlothian

    Today, 2 June, Tuesday

    Time Temperature Precipitation Wind Pressure Humidity
    00:00 +10°C° 0 mm 2 mps 744 mmHg 85%
    01:00 +11°C° 0 mm 1 mps 744 mmHg 85%
    02:00 +11°C° 0 mm 1 mps 744 mmHg 86%
    03:00 +11°C° 0 mm 1 mps 743 mmHg 86%
    04:00 +12°C° 0 mm 1 mps 743 mmHg 84%
    05:00 +13°C° 0 mm 1 mps 743 mmHg 82%
    06:00 +14°C° 0 mm 1 mps 743 mmHg 84%
    07:00 +15°C° 0 mm 1 mps 742 mmHg 78%
    08:00 +18°C° 0 mm 1 mps 742 mmHg 73%
    09:00 +18°C° 0 mm 2 mps 742 mmHg 67%
    10:00 +19°C° 0.1 mm 2 mps 742 mmHg 64%
    11:00 +20°C° 0.1 mm 2 mps 742 mmHg 61%
    12:00 +20°C° 0.1 mm 2 mps 741 mmHg 58%
    13:00 +20°C° 0.3 mm 3 mps 741 mmHg 64%
    14:00 +19°C° 0.3 mm 3 mps 740 mmHg 70%
    15:00 +18°C° 0.3 mm 3 mps 739 mmHg 76%
    16:00 +16°C° 0.7 mm 3 mps 739 mmHg 81%
    17:00 +14°C° 0.7 mm 3 mps 739 mmHg 87%
    18:00 +12°C° 0.7 mm 3 mps 738 mmHg 93%
    19:00 +11°C° 0.9 mm 3 mps 738 mmHg 95%
    20:00 +11°C° 0.9 mm 3 mps 738 mmHg 96%
    21:00 +10°C° 0.9 mm 3 mps 738 mmHg 97%
    22:00 +10°C° 0.9 mm 4 mps 737 mmHg 97%
    23:00 +9°C° 0.9 mm 5 mps 737 mmHg 96%

    Tomorrow, 3 June, Wednesday

    Time Temperature Precipitation Wind Pressure Humidity
    00:00 +8°C° 0.9 mm 7 mps 737 mmHg 96%
    01:00 +8°C° 0.4 mm 7 mps 737 mmHg 94%
    02:00 +6°C° 0.4 mm 7 mps 737 mmHg 93%
    03:00 +5°C° 0.4 mm 7 mps 736 mmHg 91%
    04:00 +5°C° 0 mm 7 mps 737 mmHg 89%
    05:00 +5°C° 0 mm 6 mps 737 mmHg 88%
    06:00 +5°C° 0 mm 6 mps 737 mmHg 86%
    07:00 +7°C° 0 mm 6 mps 737 mmHg 81%
    08:00 +8°C° 0 mm 6 mps 737 mmHg 77%
    09:00 +9°C° 0 mm 6 mps 737 mmHg 73%
    10:00 +9°C° 0.1 mm 6 mps 737 mmHg 76%
    11:00 +9°C° 0.1 mm 6 mps 737 mmHg 78%
    12:00 +9°C° 0.1 mm 6 mps 737 mmHg 81%
    13:00 +9°C° 0.1 mm 6 mps 736 mmHg 81%
    14:00 +9°C° 0.1 mm 6 mps 736 mmHg 81%
    15:00 +9°C° 0.1 mm 7 mps 736 mmHg 82%
    16:00 +8°C° 0 mm 6 mps 736 mmHg 81%
    17:00 +8°C° 0 mm 6 mps 736 mmHg 80%
    18:00 +8°C° 0 mm 6 mps 735 mmHg 80%
    19:00 +8°C° 0 mm 5 mps 735 mmHg 80%
    20:00 +7°C° 0 mm 4 mps 736 mmHg 80%
    21:00 +7°C° 0 mm 4 mps 736 mmHg 81%
    22:00 +7°C° 0 mm 3 mps 735 mmHg 81%
    23:00 +5°C° 0 mm 3 mps 735 mmHg 81%

    Day after tomorrow, 4 June, Thursday

    Time Temperature Precipitation Wind Pressure Humidity
    00:00 +5°C° 0 mm 3 mps 734 mmHg 81%
    01:00 +6°C° 0 mm 2 mps 734 mmHg 82%
    02:00 +5°C° 0 mm 2 mps 733 mmHg 82%
    03:00 +5°C° 0 mm 2 mps 733 mmHg 82%
    04:00 +5°C° 0 mm 2 mps 732 mmHg 80%
    05:00 +7°C° 0 mm 1 mps 732 mmHg 78%
    06:00 +7°C° 0 mm 1 mps 731 mmHg 76%
    07:00 +7°C° 0 mm 2 mps 731 mmHg 73%
    08:00 +8°C° 0 mm 2 mps 731 mmHg 69%
    09:00 +9°C° 0 mm 2 mps 730 mmHg 66%
    10:00 +10°C° 0.1 mm 2 mps 730 mmHg 67%
    11:00 +10°C° 0.1 mm 2 mps 730 mmHg 68%
    12:00 +10°C° 0.1 mm 2 mps 729 mmHg 69%
    13:00 +10°C° 0.4 mm 2 mps 729 mmHg 70%
    14:00 +12°C° 0.4 mm 2 mps 729 mmHg 71%
    15:00 +12°C° 0.4 mm 2 mps 728 mmHg 72%
    16:00 +11°C° 0.3 mm 3 mps 728 mmHg 75%
    17:00 +10°C° 0.3 mm 3 mps 728 mmHg 78%
    18:00 +10°C° 0.3 mm 3 mps 727 mmHg 80%
    19:00 +9°C° 0.1 mm 3 mps 727 mmHg 82%
    20:00 +8°C° 0.1 mm 3 mps 727 mmHg 85%
    21:00 +7°C° 0.1 mm 3 mps 727 mmHg 87%
    22:00 +6°C° 0.1 mm 2 mps 727 mmHg 86%
    23:00 +6°C° 0.1 mm 2 mps 727 mmHg 86%

    5 June, Friday

    Time Temperature Precipitation Wind Pressure Humidity
    00:00 +5°C° 0.1 mm 2 mps 726 mmHg 85%
    01:00 +5°C° 0 mm 2 mps 726 mmHg 86%
    02:00 +4°C° 0 mm 2 mps 726 mmHg 87%
    03:00 +4°C° 0 mm 2 mps 725 mmHg 87%
    04:00 +3°C° 0 mm 3 mps 725 mmHg 86%
    05:00 +4°C° 0 mm 3 mps 725 mmHg 84%
    06:00 +5°C° 0 mm 4 mps 725 mmHg 82%
    07:00 +6°C° 0 mm 5 mps 724 mmHg 74%
    08:00 +7°C° 0 mm 5 mps 724 mmHg 66%
    09:00 +8°C° 0 mm 6 mps 724 mmHg 58%
    10:00 +9°C° 0.2 mm 6 mps 724 mmHg 59%
    11:00 +9°C° 0.2 mm 6 mps 724 mmHg 60%
    12:00 +10°C° 0.2 mm 6 mps 723 mmHg 61%
    13:00 +10°C° 0.4 mm 6 mps 723 mmHg 63%
    14:00 +9°C° 0.4 mm 6 mps 723 mmHg 65%
    15:00 +9°C° 0.4 mm 7 mps 723 mmHg 67%
    16:00 +9°C° 0.4 mm 6 mps 722 mmHg 69%
    17:00 +8°C° 0.4 mm 6 mps 722 mmHg 72%
    18:00 +8°C° 0.4 mm 6 mps 722 mmHg 74%
    19:00 +5°C° 0 mm 7 mps 722 mmHg 74%
    20:00 +4°C° 0 mm 7 mps 722 mmHg 74%
    21:00 +3°C° 0 mm 7 mps 722 mmHg 73%
    22:00 +3°C° 0.1 mm 7 mps 722 mmHg 75%
    23:00 +1°C° 0.1 mm 8 mps 721 mmHg 77%

    6 June, Saturday

    Time Temperature Precipitation Wind Pressure Humidity
    00:00 +1°C° 0.1 mm 8 mps 721 mmHg 79%
    01:00 +1°C° 0.5 mm 9 mps 721 mmHg 83%
    02:00 +1°C° 0.5 mm 9 mps 720 mmHg 87%
    03:00 +1°C° 0.5 mm 10 mps 720 mmHg 92%
    04:00 +1°C° 0.3 mm 10 mps 720 mmHg 91%
    05:00 +2°C° 0.3 mm 10 mps 720 mmHg 90%
    06:00 +2°C° 0.3 mm 10 mps 720 mmHg 90%
    07:00 +3°C° 0.2 mm 10 mps 720 mmHg 89%
    08:00 +3°C° 0.2 mm 10 mps 720 mmHg 88%
    09:00 +5°C° 0.2 mm 10 mps 720 mmHg 87%
    10:00 +5°C° 0.2 mm 10 mps 719 mmHg 88%
    11:00 +5°C° 0.2 mm 10 mps 719 mmHg 88%
    12:00 +5°C° 0.2 mm 10 mps 719 mmHg 89%
    13:00 +6°C° 0.5 mm 9 mps 719 mmHg 90%
    14:00 +6°C° 0.5 mm 9 mps 718 mmHg 91%
    15:00 +6°C° 0.5 mm 9 mps 718 mmHg 93%
    16:00 +7°C° 0.3 mm 8 mps 718 mmHg 91%
    17:00 +8°C° 0.3 mm 7 mps 717 mmHg 89%
    18:00 +9°C° 0.3 mm 7 mps 717 mmHg 88%
    19:00 +8°C° 0.4 mm 6 mps 717 mmHg 89%
    20:00 +8°C° 0.4 mm 6 mps 717 mmHg 90%
    21:00 +8°C° 0.4 mm 5 mps 717 mmHg 92%
    22:00 +7°C° 0.1 mm 5 mps 717 mmHg 92%
    23:00 +7°C° 0.1 mm 5 mps 717 mmHg 92%

    7 June, Sunday

    Time Temperature Precipitation Wind Pressure Humidity
    00:00 +6°C° 0.1 mm 5 mps 717 mmHg 92%
    01:00 +6°C° 0.1 mm 5 mps 717 mmHg 92%
    02:00 +6°C° 0.1 mm 5 mps 718 mmHg 92%
    03:00 +6°C° 0.1 mm 5 mps 718 mmHg 92%
    04:00 +7°C° 0.2 mm 5 mps 719 mmHg 92%
    05:00 +7°C° 0.2 mm 6 mps 719 mmHg 92%
    06:00 +7°C° 0.2 mm 6 mps 720 mmHg 92%
    07:00 +8°C° 0.4 mm 7 mps 721 mmHg 92%
    08:00 +7°C° 0.4 mm 8 mps 721 mmHg 92%
    09:00 +7°C° 0.4 mm 9 mps 722 mmHg 91%
    10:00 +7°C° 0.4 mm 8 mps 723 mmHg 91%
    11:00 +8°C° 0.4 mm 7 mps 723 mmHg 90%
    12:00 +8°C° 0.4 mm 7 mps 723 mmHg 89%
    13:00 +8°C° 0.2 mm 6 mps 724 mmHg 88%
    14:00 +8°C° 0.2 mm 5 mps 724 mmHg 88%
    15:00 +10°C° 0.2 mm 4 mps 724 mmHg 87%
    16:00 +10°C° 0.1 mm 4 mps 725 mmHg 87%
    17:00 +10°C° 0.1 mm 4 mps 725 mmHg 87%
    18:00 +10°C° 0.1 mm 4 mps 725 mmHg 87%
    19:00 +8°C° 0.1 mm 4 mps 726 mmHg 90%
    20:00 +9°C° 0.1 mm 3 mps 727 mmHg 93%
    21:00 +8°C° 0.1 mm 3 mps 727 mmHg 95%
    22:00 +7°C° 0.1 mm 3 mps 728 mmHg 95%
    23:00 +7°C° 0.1 mm 3 mps 728 mmHg 96%
    Show more